GFSNW_925_spd_222.txt.gz
Wind_Speed
16 18 33 35 32 32 37 6 9 40 48 11 9 19 16 9 14 4 7 3 7 8 8 6 6 10 8 8 8 9 5 4 5 13 1 3 3 9 8 6 7 3 2 19
16 15 18 27 37 40 16 4 3 38 40 15 19 10 16 16 9 16 8 10 7 6 7 4 7 7 4 9 9 10 8 3 1 4 3 3 4 5 4 3 3 11 9 14
18 17 15 19 27 39 33 2 3 3 11 17 23 25 18 19 22 12 13 7 6 4 5 6 5 7 4 2 4 4 7 6 7 13 8 3 5 6 6 7 4 8 22 32
22 22 21 16 20 25 30 4 4 3 7 13 23 20 12 23 18 24 22 13 20 14 13 13 14 5 2 0 2 4 8 14 7 8 7 7 12 13 12 15 15 13 21 23
28 27 25 23 19 20 15 5 3 2 2 15 19 20 25 28 22 15 25 24 24 20 27 25 22 14 7 12 3 5 4 16 4 26 16 14 20 26 19 22 22 23 24 37
29 30 28 27 24 20 2 3 2 2 7 15 20 23 34 30 22 22 26 28 21 27 36 23 22 13 14 10 17 12 8 6 6 26 15 12 13 21 23 25 25 25 26 37
32 32 33 31 28 27 8 3 2 3 10 15 20 29 32 30 26 34 23 20 27 24 8 4 4 4 3 9 15 11 8 15 9 12 5 13 13 10 12 21 28 26 28 28
37 36 36 35 33 30 6 7 2 2 3 4 8 20 27 21 20 22 22 22 19 7 6 3 3 1 1 16 23 19 18 11 6 7 11 13 22 5 7 9 22 22 22 25
39 39 39 39 38 34 26 10 8 2 2 6 6 9 9 10 12 8 4 2 4 6 6 4 12 9 5 7 4 16 20 21 14 4 5 12 7 5 6 7 19 11 19 20
41 41 42 42 40 38 32 8 11 5 1 2 2 3 8 3 4 3 4 6 2 7 6 10 6 9 7 9 8 6 9 8 20 18 10 7 6 3 9 8 8 3 5 7
44 44 44 42 41 39 33 17 23 11 2 2 2 4 2 4 1 9 3 3 2 1 10 7 4 5 7 3 3 8 11 8 8 7 9 14 11 5 11 3 1 4 3 5
44 45 44 44 41 39 36 8 27 24 2 2 3 9 15 7 2 3 3 3 2 6 4 3 3 3 3 6 6 3 6 8 6 9 6 1 10 4 4 2 3 4 3 5
39 41 43 43 42 41 41 15 25 14 3 2 2 6 16 15 18 10 1 2 4 3 2 1 2 4 4 6 5 4 5 4 4 3 6 7 5 4 2 3 2 2 3 5
33 37 39 42 42 41 43 16 28 14 3 2 3 2 6 9 13 14 13 8 2 3 3 1 1 2 3 3 1 7 5 8 9 4 6 4 5 4 3 1 3 4 4 4
27 32 37 39 40 40 40 22 31 22 4 3 2 2 4 4 12 18 19 11 6 2 2 2 2 1 1 1 2 3 4 5 5 4 6 2 2 7 10 11 8 7 7 6
23 30 35 35 33 35 24 3 24 33 13 2 1 1 2 1 7 9 10 9 3 2 2 2 2 2 2 1 2 6 5 5 6 4 5 9 5 4 4 7 10 9 9 9
23 26 30 30 31 32 4 3 7 32 18 2 1 3 1 2 2 0 1 1 2 2 2 3 3 4 5 2 4 7 7 10 9 4 4 1 6 5 8 15 15 14 10 9
25 26 27 27 27 20 6 6 16 34 8 2 2 2 1 4 3 3 3 3 3 3 3 2 3 4 3 4 11 14 13 12 9 10 10 5 10 12 10 11 10 10 9 7
22 28 25 20 6 3 7 13 24 15 5 4 2 4 4 4 2 2 1 2 3 3 2 2 3 2 4 9 14 14 13 10 7 6 8 12 14 11 9 10 9 10 8 7
35 17 4 2 3 35 25 4 0 2 1 1 3 3 4 4 2 2 2 1 0 2 2 3 2 3 15 12 12 6 6 7 10 10 9 11 12 11 9 8 7 5 6 6
6 3 3 9 19 4 2 3 2 2 2 3 3 4 5 1 2 2 1 1 1 1 2 3 2 4 5 2 9 7 6 8 12 6 7 11 11 9 8 6 6 6 7 5
7 16 9 3 2 2 4 2 3 2 3 3 3 2 3 3 2 2 3 2 2 4 3 2 3 4 5 4 4 4 7 7 7 7 9 9 9 8 9 8 7 5 10 11
8 4 3 3 2 5 3 4 3 3 3 3 3 3 2 2 1 2 2 3 4 3 2 4 5 3 0 3 5 7 8 9 10 10 11 10 10 12 10 8 9 11 10 9
3 4 2 3 2 3 3 3 3 2 3 6 5 3 3 2 2 2 3 2 2 3 3 5 3 3 5 5 3 9 8 10 12 10 10 10 9 7 12 13 11 10 7 7
2 3 2 3 2 2 1 2 3 1 6 4 3 3 2 1 3 2 2 3 4 5 4 3 2 2 6 6 6 8 9 9 11 9 8 8 7 7 6 9 8 5 4 3
2 2 2 2 3 3 3 2 3 2 4 2 2 3 2 2 2 4 6 3 5 3 2 1 3 5 6 8 8 8 8 8 8 7 8 8 6 5 8 9 7 6 5 2
2 1 1 2 2 3 2 2 3 4 6 2 3 4 4 2 2 3 4 4 2 1 1 0 3 6 7 8 9 8 8 8 8 7 9 8 10 10 8 5 4 6 7 7

GFSNW_925_spd_225.txt.gz
Wind_Speed
32 34 35 36 40 45 46 10 12 41 43 10 7 18 17 7 8 4 3 1 4 7 8 6 6 10 6 7 7 10 4 4 6 13 3 2 1 8 11 10 11 5 6 15
16 24 28 35 41 48 29 7 7 45 42 14 17 12 19 14 12 17 7 8 5 4 6 3 7 7 4 9 10 10 9 4 3 3 2 1 5 7 8 8 6 19 15 11
13 15 23 29 34 41 21 4 4 4 12 19 24 20 15 16 21 12 14 4 5 3 5 5 5 6 5 4 5 3 9 7 8 13 9 3 5 11 12 16 14 15 25 34
13 11 11 18 25 40 21 5 4 4 8 17 22 23 14 17 13 19 21 11 20 15 13 14 12 5 1 1 2 1 5 14 9 11 10 6 16 21 15 19 21 20 25 30
18 16 18 15 15 18 15 4 5 1 3 3 12 12 23 26 21 12 18 20 20 18 26 24 15 18 7 14 1 7 5 15 10 23 14 16 30 25 20 19 20 21 26 37
21 21 22 19 17 14 1 3 2 2 8 13 13 14 23 26 21 17 25 26 22 27 31 25 24 12 9 11 18 11 7 6 3 29 14 15 24 18 28 28 29 27 28 41
24 23 24 22 20 22 3 2 3 3 11 13 21 27 28 24 26 29 22 22 27 28 6 20 3 3 12 18 21 16 15 14 11 17 5 12 21 9 14 21 26 28 31 31
26 26 27 25 26 24 10 5 3 1 2 13 14 19 24 23 18 21 22 19 22 14 13 2 2 2 3 17 18 18 17 12 6 8 14 17 30 6 8 10 27 23 24 26
26 27 28 28 27 26 21 6 10 2 2 3 4 5 12 13 15 12 17 2 1 9 7 4 12 8 5 8 5 22 20 18 12 4 5 13 18 1 11 5 22 15 19 20
27 28 29 29 29 29 25 11 10 6 2 1 2 2 2 1 3 3 4 5 5 13 8 10 10 12 10 9 9 6 14 15 23 20 16 9 8 6 10 11 9 6 11 15
26 28 32 33 31 31 29 11 26 11 2 1 0 3 3 3 3 2 3 3 2 5 10 6 3 5 8 4 5 10 12 8 12 14 14 20 11 8 13 4 1 4 3 6
28 30 33 34 35 35 35 6 25 19 3 1 2 8 13 5 4 3 4 2 2 3 2 2 3 3 3 7 9 4 8 11 8 11 7 2 10 9 7 2 3 3 3 3
26 30 35 37 38 38 40 17 27 11 3 1 3 6 11 13 19 9 1 1 5 3 3 1 2 4 3 6 7 4 6 4 6 4 8 8 5 7 2 3 3 3 3 5
20 25 30 36 39 39 40 17 25 17 3 2 2 1 4 6 16 22 19 5 2 1 1 2 1 1 4 2 3 8 5 11 10 4 4 2 6 6 4 3 2 4 3 6
16 20 27 31 35 36 35 23 32 23 4 3 1 1 3 3 10 15 18 11 5 3 2 3 3 0 1 1 2 3 2 4 5 4 4 4 3 4 7 8 12 11 8 5
16 17 22 26 31 33 15 3 25 29 11 3 1 1 2 2 6 9 11 8 5 3 3 2 2 2 3 2 2 5 6 5 6 2 2 2 4 8 4 9 9 9 10 10
16 19 22 26 27 28 5 3 7 28 18 2 1 2 0 2 1 2 2 0 2 3 2 4 3 4 5 2 4 8 6 9 8 3 3 4 5 7 7 5 5 9 10 11
15 17 20 23 27 20 7 4 31 28 9 2 2 1 2 4 2 2 2 2 2 3 2 2 2 3 3 4 12 14 16 14 7 7 10 12 7 5 8 10 12 13 12 11
20 31 37 22 6 3 5 13 25 12 4 5 4 5 4 4 1 1 1 2 3 2 3 3 4 3 5 10 16 16 13 7 9 5 11 13 10 11 11 13 11 11 9 7
36 20 4 3 4 31 25 6 1 2 1 1 3 2 3 4 2 3 2 1 2 2 2 1 3 4 14 16 9 7 8 10 8 5 3 4 8 11 13 9 5 6 5 5
7 3 2 15 16 4 2 2 2 2 2 3 3 4 5 2 4 3 2 1 1 2 1 2 2 5 3 4 6 6 7 7 10 10 4 7 10 9 9 7 5 6 7 6
8 16 8 5 3 2 3 2 2 2 4 4 4 3 2 2 2 2 2 2 2 3 3 2 3 4 4 3 3 5 3 4 5 6 11 13 10 7 6 7 7 8 11 11
8 4 3 2 1 3 5 5 3 2 4 5 4 4 3 2 2 2 3 3 3 3 3 4 4 4 2 1 2 7 10 12 13 12 11 11 8 9 8 9 11 13 12 12
2 3 3 2 2 3 3 2 3 2 2 7 5 3 2 2 2 2 3 2 3 3 3 5 2 3 3 2 4 10 10 10 11 10 10 11 11 10 13 14 14 13 9 9
2 2 2 3 2 1 1 1 3 1 5 5 4 3 1 2 2 2 3 3 4 5 4 2 2 2 3 6 7 9 9 9 10 10 10 9 9 10 9 12 12 11 10 7
2 3 3 2 1 1 2 2 3 1 4 2 2 2 2 2 2 3 5 3 5 3 1 1 1 3 4 6 7 8 10 11 10 9 9 10 7 8 10 10 10 11 9 8
1 1 1 2 1 3 3 3 3 4 5 3 3 4 4 3 2 3 4 4 1 1 2 2 2 5 7 8 9 8 9 10 10 9 11 10 12 13 11 8 7 10 9 8

GFSNW_925_spd_231.txt.gz
Wind_Speed
59 71 72 65 63 61 54 17 11 37 36 11 16 22 31 26 29 13 12 5 19 18 17 16 19 17 13 12 11 8 17 7 14 22 17 15 15 19 17 13 15 16 16 15
68 73 70 71 73 71 48 13 5 36 31 16 20 27 31 30 30 20 20 13 14 15 17 12 17 21 12 9 12 7 8 8 13 19 16 17 14 20 21 21 20 26 19 13
57 70 71 70 74 73 45 9 9 6 13 21 28 30 30 32 30 23 24 16 19 18 20 19 11 21 10 5 9 5 2 14 18 15 17 16 19 19 20 21 18 19 22 26
29 54 69 67 73 74 38 9 8 9 16 25 29 27 20 32 33 29 22 23 23 21 22 22 23 19 11 3 4 3 6 20 21 25 26 26 28 29 28 29 26 24 20 30
17 26 66 69 76 75 26 8 9 15 11 23 30 28 32 32 35 28 31 29 26 23 24 24 19 16 16 13 13 9 10 19 19 27 25 26 33 33 30 32 32 35 32 39
9 18 28 50 72 65 10 5 8 14 17 22 22 32 37 33 24 30 30 29 22 25 31 19 16 3 11 14 17 20 18 14 8 20 18 22 28 24 35 36 35 29 33 39
6 12 14 21 23 35 9 10 6 6 6 21 25 27 33 33 33 31 26 27 27 28 3 11 11 9 12 14 21 18 16 17 7 5 4 16 14 17 20 23 29 31 35 31
3 8 9 11 13 15 18 7 4 4 10 10 19 21 25 28 24 26 28 26 31 14 15 3 0 0 3 14 22 27 19 11 4 6 9 22 31 19 14 18 26 22 25 27
10 8 8 8 9 8 20 20 10 3 4 5 9 11 17 15 21 20 22 16 16 13 9 4 9 7 6 9 6 24 25 19 12 4 6 15 12 15 22 28 34 23 28 28
18 15 14 13 12 11 9 9 14 6 3 3 4 2 8 6 5 4 4 10 6 13 9 8 7 8 9 9 11 6 16 14 20 16 11 17 13 18 6 16 11 6 7 11
21 19 19 20 20 15 11 8 8 6 3 3 4 5 2 2 1 8 1 3 2 4 6 5 3 6 8 8 17 21 14 10 10 12 11 25 9 16 28 15 19 20 15 12
20 21 21 21 22 21 17 7 13 14 4 2 2 3 3 5 4 2 4 3 4 4 3 2 3 4 3 12 14 19 18 10 10 15 13 20 12 14 17 19 24 25 23 18
18 18 18 19 20 23 14 14 20 10 3 1 1 3 2 2 1 4 2 2 3 3 3 2 1 3 5 6 14 17 11 16 15 21 25 24 24 21 20 24 18 14 12 7
17 20 22 22 23 24 17 17 20 10 4 2 2 2 6 7 11 9 6 5 5 5 1 1 1 1 2 2 3 2 5 10 8 14 12 13 18 13 13 12 13 12 11 8
16 19 21 22 23 23 19 20 25 16 2 3 3 2 3 3 10 14 13 8 6 3 3 2 3 2 4 3 3 9 5 10 5 2 5 7 5 10 12 11 11 11 8 10
16 17 18 21 22 23 16 2 17 20 6 2 2 2 2 4 3 9 7 5 2 1 0 1 2 3 5 4 4 14 17 17 15 10 3 8 16 13 13 10 9 9 8 13
16 16 18 21 23 26 4 3 8 33 14 3 4 5 3 2 4 2 3 7 2 2 2 3 4 4 4 3 11 22 21 21 15 11 9 13 18 12 12 12 15 15 12 11
16 17 20 24 27 19 7 5 16 28 4 1 2 4 5 6 3 3 1 3 2 2 1 2 3 4 2 6 18 19 20 20 20 21 14 18 19 20 20 17 15 13 12 11
22 32 35 19 7 3 4 22 23 7 3 3 3 5 4 5 3 3 2 2 2 3 3 4 4 6 6 14 16 17 19 18 18 18 14 17 18 18 18 17 15 10 11 7
31 15 6 3 5 33 22 5 2 2 2 2 4 5 5 5 4 4 5 3 3 3 6 3 5 9 19 19 17 17 18 14 13 14 15 16 18 13 14 15 11 6 4 4
5 3 2 15 19 5 1 3 3 3 4 4 4 6 5 4 5 4 4 3 3 3 4 4 4 6 5 5 7 7 8 8 10 13 14 14 15 12 10 6 6 8 10 7
7 15 9 5 3 2 3 4 4 5 5 6 8 6 3 3 2 3 3 3 3 5 3 2 4 5 5 2 3 6 7 7 7 6 6 8 9 7 6 6 7 7 11 11
21 4 3 3 2 3 4 6 4 4 6 6 6 6 3 3 3 3 4 5 5 1 2 4 4 2 5 6 6 7 9 8 8 9 10 9 8 12 9 9 12 12 11 10
2 3 3 3 3 4 2 4 4 5 6 9 7 5 3 3 5 3 4 3 3 4 4 7 3 6 4 5 5 4 6 7 8 7 7 9 9 10 13 13 12 11 10 11
1 1 2 2 3 3 3 3 5 5 6 7 4 3 4 4 3 4 3 3 5 5 5 2 3 3 3 1 2 4 6 4 7 8 8 8 7 10 10 12 12 12 11 10
2 3 3 3 4 2 2 3 5 4 7 6 3 4 4 4 3 5 7 4 5 3 1 3 2 2 1 3 4 5 5 6 7 8 9 10 8 8 11 12 12 11 11 11
1 2 2 2 2 3 4 5 6 7 5 4 3 6 6 3 4 5 4 5 4 4 2 0 1 2 4 5 7 6 4 6 7 8 9 9 10 10 9 8 9 9 9 7

GFSNW_925_spd_237.txt.gz
Wind_Speed
39 36 35 35 34 28 24 19 15 34 51 14 16 21 37 14 23 19 15 13 9 9 9 9 15 13 8 10 13 12 10 5 5 10 7 6 8 9 8 5 7 5 8 9
40 38 36 36 37 33 11 14 8 43 50 18 18 32 27 23 17 28 16 14 9 4 5 11 9 11 11 7 12 7 6 3 1 7 6 4 5 5 6 5 4 10 8 7
41 39 37 38 39 35 28 11 9 8 16 18 29 28 21 29 22 23 12 13 11 9 6 4 1 6 5 2 5 4 6 4 7 9 6 1 5 5 6 5 4 10 12 20
41 41 38 40 39 36 22 12 6 6 23 20 24 31 27 24 20 25 14 15 23 11 6 4 6 3 1 6 1 4 4 5 2 7 4 4 10 15 14 12 16 16 17 23
39 38 36 40 41 37 20 7 5 7 23 39 33 20 17 34 28 22 34 19 18 17 10 7 4 2 3 3 3 3 0 2 2 15 4 7 20 21 15 19 22 22 26 32
41 36 38 38 41 31 6 12 5 8 20 29 21 24 31 32 25 23 23 29 12 14 18 8 6 4 4 1 6 7 6 4 3 14 4 8 20 8 18 21 18 19 25 28
40 34 36 38 39 38 31 27 11 8 12 22 27 34 29 24 26 26 25 13 21 6 6 7 7 5 4 5 4 5 4 5 4 3 5 10 4 5 7 6 8 10 17 18
28 30 35 37 45 52 44 36 11 7 5 22 27 20 23 15 17 15 17 21 5 11 6 5 5 4 2 18 8 7 7 5 0 3 6 16 29 17 15 15 28 18 19 16
23 27 33 52 49 60 44 38 19 5 10 13 19 21 16 19 16 5 17 7 8 6 4 4 7 8 6 6 5 16 7 7 6 4 4 18 25 7 6 5 11 17 12 11
14 17 37 20 58 61 38 24 14 6 6 1 1 14 21 11 14 11 3 8 4 4 4 2 6 11 10 13 12 5 10 7 17 15 11 14 3 7 8 9 4 13 14 13
7 13 29 22 47 64 25 14 17 7 4 3 8 5 3 5 14 14 5 3 3 2 6 8 5 5 7 6 18 16 11 8 12 11 11 23 3 5 17 5 12 12 13 12
4 10 19 29 23 39 31 8 20 21 8 3 8 16 14 8 3 6 4 3 3 3 5 3 3 1 1 9 16 12 15 13 10 12 7 2 6 12 5 8 4 5 5 5
6 13 20 27 28 22 20 19 21 18 4 4 4 5 11 20 19 7 5 2 5 3 2 3 1 2 2 6 11 5 13 6 9 3 9 6 7 7 5 2 3 3 2 2
13 14 21 27 26 26 31 19 16 19 5 4 3 5 6 12 22 29 23 12 11 5 2 3 2 2 1 0 2 3 1 2 1 1 2 7 9 2 4 1 4 2 5 3
18 20 20 27 30 34 36 33 26 19 5 3 3 7 9 11 22 23 24 14 6 2 3 2 2 2 3 1 1 2 2 2 1 3 5 6 8 8 6 5 5 5 4 5
19 20 22 25 29 27 11 4 11 20 9 4 3 3 3 8 12 16 12 8 4 2 3 2 3 5 3 2 3 6 8 6 1 3 4 4 5 7 6 7 7 6 6 8
20 19 23 21 19 22 6 4 13 11 10 3 4 2 3 2 7 2 4 5 3 2 2 2 3 3 6 2 3 4 7 6 7 8 6 6 4 5 7 8 6 5 3 4
26 26 24 20 15 12 11 20 16 8 5 3 4 2 2 2 3 2 2 2 2 2 2 1 2 3 2 4 8 4 6 6 5 6 7 7 6 3 6 5 4 6 5 3
32 29 22 13 8 4 5 15 13 12 6 3 3 6 3 3 2 2 2 2 2 2 2 2 3 2 4 7 5 6 4 3 3 5 6 7 6 5 6 6 5 5 6 8
24 12 4 3 4 21 10 11 4 5 3 2 3 4 4 5 4 2 3 1 3 3 4 3 2 3 10 5 5 5 7 5 5 4 5 6 7 10 12 10 10 10 9 9
5 3 2 11 10 4 3 2 2 0 2 0 1 5 7 3 3 3 3 3 2 2 3 5 3 3 2 8 8 8 8 9 10 9 8 8 8 8 8 9 8 8 8 8
5 14 7 3 1 2 3 2 2 2 3 2 5 6 3 2 3 3 1 3 2 2 5 3 1 3 6 8 10 10 9 10 10 9 9 8 8 7 7 6 7 9 11 12
9 4 2 2 0 2 2 3 2 2 3 3 3 3 3 3 3 3 3 3 3 3 2 3 4 6 6 9 10 10 9 9 9 9 9 10 11 13 12 8 13 14 14 13
2 3 2 1 1 2 1 1 4 2 5 9 4 2 3 2 3 2 3 3 3 2 2 5 3 5 7 7 6 8 7 7 8 9 8 8 9 11 14 13 13 14 13 16
1 3 1 2 2 3 3 2 5 4 6 4 3 3 3 1 3 1 3 2 3 4 4 3 3 6 8 8 7 8 7 6 7 7 7 7 11 10 11 13 12 12 13 13
1 2 3 1 5 2 3 4 3 3 2 3 3 3 3 2 4 3 4 5 5 3 3 3 5 7 8 7 6 6 7 8 7 8 9 11 12 10 11 14 15 15 15 16
2 1 2 3 3 4 3 2 1 2 3 2 2 4 5 2 2 3 4 4 3 5 3 3 6 7 8 7 6 5 5 8 10 10 10 11 15 18 13 6 10 10 10 15